This demonstration page uses our WeatherBlox Daily Observations layout. Learn more.

Left ArrowRight Arrow

53.62937, 11.41316

Hourly Observations for April 11, 2021

Temp ( °F °C ) Dew Point ( °F °C ) Humidity (%) Winds ( mph kmh ) Pressure ( in mb ) Visibility ( mi km ) Precip ( " mm )
7:50 am 07:50 Mostly Cloudy with Light Rain 43 6 43 6 100 100 SE 6 9 29.74 1007 3 5 N/A
8:20 am 08:20 Mostly Cloudy with Light Rain 45 7 43 6 93 93 SE 7 11 29.74 1007 3 5 N/A
8:50 am 08:50 Mostly Cloudy with Drizzle 45 7 45 7 100 100 SE 6 9 29.71 1006 4 6 N/A
9:20 am 09:20 Mostly Cloudy with Drizzle 45 7 45 7 100 100 SSE 7 11 29.71 1006 4 6 N/A
9:50 am 09:50 Mostly Cloudy with Drizzle 46 8 45 7 93 93 SSE 6 9 29.71 1006 4 6 N/A
10:20 am 10:20 Mostly Cloudy with Drizzle 46 8 46 8 100 100 SSE 6 9 29.71 1006 2 3 N/A
10:50 am 10:50 Mostly Cloudy with Drizzle 48 9 46 8 94 94 S 6 9 29.71 1006 2 3 N/A
11:20 am 11:20 Mostly Cloudy with Mist and Fog 48 9 48 9 100 100 SSE 6 9 29.71 1006 3 5 N/A
11:50 am 11:50 Mostly Cloudy 50 10 48 9 94 94 S 7 11 29.71 1006 4 6 N/A
12:20 pm 12:20 Mostly Cloudy 50 10 48 9 94 94 S 5 7 29.74 1007 5 8 N/A
12:50 pm 12:50 Mostly Cloudy 54 12 50 10 88 88 S 9 15 29.74 1007 30 48 N/A
1:20 pm 13:20 Mostly Cloudy 54 12 48 9 82 82 S 9 15 29.71 1006 30 48 N/A
1:50 pm 13:50 Mostly Cloudy 54 12 46 8 77 77 S 14 22 29.74 1007 30 48 N/A
2:20 pm 14:20 Mostly Cloudy 54 12 48 9 82 82 SSW 16 26 29.74 1007 30 48 N/A
2:50 pm 14:50 Partly Cloudy 52 11 45 7 77 77 SW 21 33 29.77 1008 30 48 N/A
3:20 pm 15:20 Mostly Cloudy 48 9 43 6 82 82 SW 16 26 29.77 1008 30 48 N/A
3:50 pm 15:50 Mostly Cloudy 46 8 41 5 82 82 SSW 17 28 29.80 1009 30 48 N/A
4:20 pm 16:20 Mostly Cloudy 45 7 39 4 81 81 SW 15 24 29.80 1009 30 48 N/A
4:50 pm 16:50 Mostly Cloudy with Light Rain 43 6 39 4 87 87 SSW 16 26 29.83 1010 30 48 N/A
5:20 pm 17:20 Mostly Cloudy with Light Rain 43 6 37 3 81 81 SW 16 26 29.83 1010 30 48 N/A
5:50 pm 17:50 Mostly Cloudy 41 5 36 2 81 81 SW 15 24 29.86 1011 30 48 N/A
6:20 pm 18:20 Mostly Cloudy 41 5 36 2 81 81 SW 14 22 29.86 1011 30 48 N/A
6:50 pm 18:50 Mostly Cloudy 41 5 34 1 76 76 SW 12 19 29.86 1011 30 48 N/A
7:20 pm 19:20 Mostly Cloudy 41 5 34 1 76 76 WSW 9 15 29.86 1011 30 48 N/A
7:50 pm 19:50 Mostly Cloudy 41 5 34 1 76 76 WSW 10 17 29.89 1012 30 48 N/A
8:20 pm 20:20 Mostly Cloudy 39 4 34 1 81 81 WSW 8 13 29.89 1012 30 48 N/A
8:50 pm 20:50 Mostly Cloudy 39 4 34 1 81 81 WSW 8 13 29.92 1013 30 48 N/A
9:20 pm 21:20 Mostly Cloudy 39 4 32 0 75 75 WSW 7 11 29.95 1014 30 48 N/A
9:50 pm 21:50 Partly Cloudy 39 4 32 0 75 75 WSW 8 13 29.95 1014 30 48 N/A

Powered by AerisWeather